User: anonymous
Location: Unspecified
(0.0000°N, 0.0000°E)
Time: 19:08:33
(UTC+00:00)
Language:

STSS ATRR (USA 205) - Orbit

View from above orbital plane
View from above orbital plane
View from above satellite
View from above satellite

Ground track
Ground track

The orbit data is extracted from the following two-line orbital elements,

1 34903U 09023A   14242.92879444 0.00000030  00000-0  18080-4 0    00
2 34903  98.9310 339.2776 0006000 226.3658 133.6341 14.06718765    02
Epoch (UTC): 30 August 2014 22:17:27
Eccentricity: 0.0006000
inclination: 98.9310°
perigee height: 866 km
apogee height: 875 km
right ascension of ascending node: 339.2776°
argument of perigee: 226.3658°
revolutions per day: 14.06718765
mean anomaly at epoch: 133.6341°
orbit number at epoch: 0

The dashed part of the orbit path shows where the satellite is in the earth's shadow,  

DLR